Location: Unspecified
(0.0000°N, 0.0000°E)
Time: 02:20:14
(UTC+00:00)

ISS - Pass Details

Date: 12 February 2019
Orbit: 403 x 411 km, 51.6° (Epoch: 16 February)

Event Time Altitude Azimuth Distance (km) Brightness Sun altitude
Rises 19:53:53 0° 319° (NW) 2,321 0.4 -24.2°
Reaches altitude 10° 19:55:58 10° 315° (NW) 1,464 -0.7 -24.7°
Enters shadow 19:57:06 20° 309° (NW) 1,022 -1.5 -24.9°
